Weather History for Monte Terminillo, Italy

Change the Weather History Date:

Thursday, November 22, 2012

  Actual Average Record
Temperature  
Mean Temperature 40 °F -  
Max Temperature 44 °F 34 °F 46 °F (2003)
Min Temperature 37 °F 27 °F 12 °F (1998)
Degree Days  
Heating Degree Days 24    
Moisture  
Dew Point 40 °F    
Average Humidity 98    
Maximum Humidity 100    
Minimum Humidity 91    
Precipitation  
Precipitation 0.00 in - - ()
Sea Level Pressure  
Sea Level Pressure 30.22 in    
Wind  
Wind Speed 4 mph ()    
Max Wind Speed 9 mph    
Max Gust Speed -    
Visibility 6.7 miles    
Events Fog    
Averages and records for this station are not official NWS values.
T = Trace of Precipitation, MM = Missing Value Source: Averaged Metar Reports

Daily Weather History Graph

Daily Weather History Graph

Search for Another Location

Airport:

Trip Planner

Search our weather history database for the weather conditions in past years. The results will help you decide how hot, cold, wet, or windy it might be!

Date:

Astronomy

Nov. 22, 2012 Rise Set
Actual Time 7:07 AM CET 4:40 PM CET
Civil Twilight 6:37 AM CET 5:11 PM CET
Nautical Twilight 6:02 AM CET 5:45 PM CET
Astronomical Twilight 5:29 AM CET 6:19 PM CET
Moon 1:23 PM CET (11/22) 1:04 AM CET (11/22)
Length of Visible Light 10h 33m
Length of Day
9h 32m
Waxing Gibbous, 69% of the Moon is Illuminated
Nov 22
Waxing Gibbous
Nov 28
Full
Dec 6
Last Quarter
Dec 13
New
Dec 20
First Quarter

Hourly Weather History & Observations

Time (CET) Temp. Dew Point Humidity Pressure Visibility Wind Dir Wind Speed Gust Speed Precip Events Conditions
12:55 AM 39.2 °F 37.4 °F 93% 30.15 in - North - - N/A   Clear
1:00 AM 39 °F 38 °F 94%  in 9 mi NE 9.2 mph - -  
1:55 AM 39.2 °F 39.2 °F 100% 30.18 in - North - - N/A   Clear
2:55 AM 39.2 °F 39.2 °F 100% 30.18 in - North - - N/A   Clear
3:55 AM 39.2 °F 39.2 °F 100% 30.18 in - North - - N/A   Clear
4:55 AM 39.2 °F 39.2 °F 100% 30.18 in - North - - N/A   Clear
5:55 AM 39.2 °F 39.2 °F 100% 30.18 in - North - - N/A   Clear
6:55 AM 37.4 °F 37.4 °F 100% 30.18 in - North - - N/A   Clear
7:00 AM 38 °F 38 °F 100%  in 9 mi Calm Calm - -  
7:55 AM 37.4 °F 37.4 °F 100% 30.21 in - North - - N/A   Clear
8:55 AM 37.4 °F 37.4 °F 100% 30.21 in - North - - N/A   Clear
9:55 AM 39.2 °F 39.2 °F 100% 30.24 in - North - - N/A   Clear
10:55 AM 39.2 °F 39.2 °F 100% 30.24 in - North - - N/A   Partly Cloudy
11:55 AM 41.0 °F 41.0 °F 100% 30.24 in - North - - N/A   Partly Cloudy
12:55 PM 42.8 °F 42.8 °F 100% 30.24 in - North - - N/A   Scattered Clouds
1:00 PM 43 °F 43 °F 100%  in 16 mi West 6.9 mph - -  
1:55 PM 44.6 °F 44.6 °F 100% 30.24 in - North - - N/A   Mostly Cloudy
2:55 PM 44.6 °F 44.6 °F 100% 30.24 in - North - - N/A   Mostly Cloudy
3:55 PM 44.6 °F 42.8 °F 93% 30.24 in - North - - N/A   Scattered Clouds
4:55 PM 44.6 °F 42.8 °F 93% 30.24 in - North - - N/A   Scattered Clouds
5:55 PM 44.6 °F 42.8 °F 93% 30.24 in - North - - N/A   Clear
6:55 PM 42.8 °F 41.0 °F 93% 30.24 in - North - - N/A   Clear
7:00 PM 43 °F 41 °F 91%  in 6 mi Calm Calm - -  
7:55 PM 42.8 °F 42.8 °F 100% 30.24 in - North - - N/A   Clear
8:55 PM 41.0 °F 39.2 °F 93% 30.24 in - North - - N/A   Clear
9:55 PM 41.0 °F 41.0 °F 100% 30.24 in - North - - N/A   Clear
10:55 PM 39.2 °F 39.2 °F 100% 30.24 in 0.0 mi North - - N/A Fog Fog
11:55 PM 39.2 °F 39.2 °F 100% 30.24 in 0.0 mi North - - N/A Fog Fog